"SCET";"TARGET";"ELECTRON_DENSITY";"ERROR_FLAG";"ELECTRON_DENSITY_ERROR";"FREQ_FCE";"MEASURED_VALUE";"MEASURED_ITEM";"FREQ_PLASMA";"FREQ_UPPER_HYBRID";"FREQ_R_EQUALS_ZERO";"FREQ_L_EQUALS_ZERO";"ORBIT_NUMBER";"SATURN_RADIUS";"SATURN_IAU_LONGITUDE";"SATURN_SLS4_S_LONGITUDE";"SATURN_SLS4_N_LONGITUDE";"SATURN_SLS5_S_LONGITUDE";"SATURN_SLS5_N_LONGITUDE";"SATURN_LOCAL_TIME";"SATURN_KRONOGRAPHIC_LATITUDE";"SATURN_MAGNETIC_LATITUDE";"SATURN_L";"SATURN_L_OFFSET";"SATURN_SOLAR_EQUATORIAL_X";"SATURN_SOLAR_EQUATORIAL_Y";"SATURN_SOLAR_EQUATORIAL_Z";"SATURN_ALTITUDE";"ENCELADUS_ENCOUNTER_NUMBER";"ENCELADUS_RADIUS";"ENCELADUS_COROTATIONAL_X";"ENCELADUS_COROTATIONAL_Y";"ENCELADUS_COROTATIONAL_Z";"ENCELADUS_TRUE_ANOMALY";"ENCELADUS_PERIAPSIS_TIME";"JUPITER_RADIUS";"JUPITER_SYSTEMIII_LONGITUDE";"JUPITER_MAGNETIC_LATITUDE";"JUPITER_MAGNETIC_LOCAL_TIME";"JUPITER_L";"IO_PHASE";"EARTH_RADIUS";"EARTH_MAGNETIC_LATITUDE";"EARTH_LOCAL_TIME";"EARTH_L"
"[UTC]";"[0=Saturn, 1=Enceladus, 2=Jupiter, 3=Earth]";"[cm-3]";"[0=automated, 1=manual]";"[normalized density error]";"[Hz]";"[Hz]";"[0=upper hybrid frequency, 1=plasma frequency cutoff]";"[Hz]";"[Hz]";"[Hz]";"[Hz}";"[0, A, B, C, 3, 4, ... , 292, 293]";"[Rs where 1Rs=60268km]";"[degrees]";"[degrees]";"[degrees]";"[degrees]";"[degrees]";"[hours]";"[degrees]";"[degrees where offset=2293km north]";"[Rs where 1Rs=60268km]";"[Rs where 1Rs=60268km and offset=2293km north]";"[Rs where 1Rs=60268km]";"[Rs where 1Rs=60268km]";"[Rs where 1Rs=60268km]";"[km where ellipsoid a,b=60268km and c=54364km]";"[E0, E1, E2, ... , E21, E22]";"[Renc where 1Renc=252.1km]";"[Renc where 1Renc=252.1km]";"[Renc where 1Renc=252.1km]";"[Renc where 1Renc=252.1km]";"[degrees]";"[UTC]";"[Rj where 1Rj=71492km]";"[degrees]";"[degrees using JRM09 model]";"[hours using JRM09 model]";"[Rj where 1Rj=71492km]";"[degrees]";"[Re where 1Re=6378.1366km]";"[degrees]";"[hours]";"[Re where 1Re=6378.1366km]"
2004-12-14T17:33:23.792Z;0;8.3090e+00;0;     0.450;   636.384;  25892.736; 0;  25884.914;  25892.736;  26205.062;  25568.678;  B;   8.611; 127.270; 254.377;; 258.760; 205.971;  13.309;   3.353;   3.101;   8.641;   8.600;   8.097;   2.889;   0.504;;;;;;;;;;;;;;;;;;
2004-12-14T17:33:39.792Z;0;8.5370e+00;0;     0.419;   636.384;  26246.145; 0;  26238.428;  26246.145;  26558.549;  25922.166;  B;   8.609; 127.405; 254.510;; 258.894; 206.105;  13.310;   3.354;   3.102;   8.639;   8.598;   8.094;   2.891;   0.504;;;;;;;;;;;;;;;;;;
2004-12-14T17:34:11.792Z;0;7.5060e+00;0;     0.403;   655.480;  24610.979; 0;  24602.248;  24610.979;  24932.172;  24276.691;  B;   8.606; 127.675; 254.777;; 259.162; 206.374;  13.312;   3.356;   3.104;   8.635;   8.595;   8.089;   2.894;   0.504;;;;;;;;;;;;;;;;;;
2004-12-14T17:34:59.791Z;0;8.6400e+00;0;     0.353;   655.480;  26403.076; 0;  26394.939;  26403.076;  26724.713;  26069.232;  B;   8.600; 128.079; 255.176;; 259.564; 206.776;  13.315;   3.360;   3.107;   8.630;   8.589;   8.081;   2.898;   0.504;;;;;;;;;;;;;;;;;;
2004-12-14T17:35:15.791Z;0;8.6410e+00;0;     0.384;   658.476;  26405.594; 0;  26397.383;  26405.594;  26728.674;  26070.197;  B;   8.598; 128.214; 255.309;; 259.698; 206.910;  13.316;   3.361;   3.108;   8.628;   8.587;   8.079;   2.900;   0.504;;;;;;;;;;;;;;;;;;
2004-12-14T17:35:31.791Z;0;9.7900e+00;0;     0.366;   658.476;  28105.246; 0;  28097.531;  28105.246;  28428.697;  27770.223;  B;   8.596; 128.349; 255.442;; 259.832; 207.044;  13.317;   3.362;   3.109;   8.626;   8.585;   8.076;   2.901;   0.504;;;;;;;;;;;;;;;;;;
2004-12-14T17:35:47.791Z;0;8.9470e+00;0;     0.254;   658.476;  26868.768; 0;  26860.697;  26868.768;  27191.953;  26533.477;  B;   8.594; 128.484; 255.575;; 259.966; 207.178;  13.318;   3.363;   3.110;   8.624;   8.583;   8.074;   2.903;   0.504;;;;;;;;;;;;;;;;;;
2004-12-14T17:36:03.791Z;0;9.7900e+00;0;     0.366;   659.428;  28105.246; 0;  28097.510;  28105.246;  28429.158;  27769.729;  B;   8.592; 128.619; 255.708;; 260.100; 207.312;  13.319;   3.364;   3.111;   8.622;   8.581;   8.071;   2.904;   0.504;;;;;;;;;;;;;;;;;;
2004-12-14T17:36:19.791Z;0;9.6120e+00;0;     0.348;   659.428;  27848.318; 0;  27840.510;  27848.318;  28172.176;  27512.748;  B;   8.590; 128.753; 255.841;; 260.234; 207.445;  13.320;   3.365;   3.112;   8.620;   8.579;   8.068;   2.906;   0.504;;;;;;;;;;;;;;;;;;
2004-12-14T17:36:35.791Z;0;9.7570e+00;0;     0.319;   659.428;  28058.383; 0;  28050.633;  28058.383;  28382.285;  27722.857;  B;   8.588; 128.888; 255.974;; 260.368; 207.579;  13.321;   3.366;   3.113;   8.618;   8.577;   8.066;   2.907;   0.504;;;;;;;;;;;;;;;;;;
2004-12-14T17:36:51.791Z;0;9.7270e+00;0;     0.367;   659.428;  28014.768; 0;  28007.006;  28014.768;  28338.660;  27679.232;  B;   8.587; 129.023; 256.107;; 260.502; 207.712;  13.322;   3.367;   3.114;   8.616;   8.576;   8.063;   2.909;   0.504;;;;;;;;;;;;;;;;;;
2004-12-14T17:37:07.790Z;0;9.0970e+00;0;     0.361;   662.200;  27093.039; 0;  27084.945;  27093.039;  27418.068;  26755.869;  B;   8.585; 129.158; 256.240;; 260.636; 207.846;  13.323;   3.368;   3.115;   8.614;   8.574;   8.061;   2.910;   0.504;;;;;;;;;;;;;;;;;;
2004-12-14T17:37:23.790Z;0;8.4750e+00;0;     0.364;   662.200;  26150.373; 0;  26141.988;  26150.373;  26475.184;  25812.984;  B;   8.583; 129.293; 256.373;; 260.769; 207.979;  13.324;   3.369;   3.116;   8.612;   8.572;   8.058;   2.912;   0.504;;;;;;;;;;;;;;;;;;
2004-12-14T17:37:39.790Z;0;8.6220e+00;0;     0.369;   662.200;  26375.812; 0;  26367.498;  26375.812;  26700.678;  26038.477;  B;   8.581; 129.427; 256.506;; 260.903; 208.112;  13.325;   3.370;   3.117;   8.611;   8.570;   8.056;   2.913;   0.504;;;;;;;;;;;;;;;;;;
2004-12-14T17:37:55.790Z;0;9.6640e+00;0;     0.368;   662.200;  27923.924; 0;  27916.070;  27923.924;  28249.135;  27586.934;  B;   8.579; 129.562; 256.639;; 261.037; 208.246;  13.326;   3.371;   3.118;   8.609;   8.568;   8.053;   2.915;   0.505;;;;;;;;;;;;;;;;;;
2004-12-14T17:38:11.790Z;0;9.8370e+00;0;     0.347;   664.300;  28172.621; 0;  28164.787;  28172.621;  28498.896;  27834.596;  B;   8.577; 129.697; 256.772;; 261.171; 208.379;  13.327;   3.372;   3.119;   8.607;   8.566;   8.050;   2.916;   0.505;;;;;;;;;;;;;;;;;;
2004-12-14T17:38:27.790Z;0;9.7680e+00;0;     0.373;   664.300;  28073.699; 0;  28065.838;  28073.699;  28399.953;  27735.654;  B;   8.575; 129.832; 256.905;; 261.305; 208.512;  13.328;   3.373;   3.120;   8.605;   8.564;   8.048;   2.918;   0.505;;;;;;;;;;;;;;;;;;
2004-12-14T17:38:43.790Z;0;9.7540e+00;0;     0.342;   664.300;  28052.941; 0;  28045.074;  28052.941;  28379.191;  27714.893;  B;   8.573; 129.966; 257.038;; 261.439; 208.645;  13.329;   3.374;   3.121;   8.603;   8.562;   8.045;   2.919;   0.505;;;;;;;;;;;;;;;;;;
2004-12-14T17:38:59.790Z;0;9.6000e+00;0;     0.398;   664.300;  27831.098; 0;  27823.168;  27831.098;  28157.301;  27493.000;  B;   8.571; 130.101; 257.171;; 261.573; 208.778;  13.330;   3.375;   3.122;   8.601;   8.560;   8.043;   2.921;   0.505;;;;;;;;;;;;;;;;;;
2004-12-14T17:39:15.790Z;0;8.6410e+00;0;     0.384;   667.296;  26405.594; 0;  26397.160;  26405.594;  26732.918;  26065.621;  B;   8.569; 130.236; 257.304;; 261.707; 208.910;  13.332;   3.377;   3.123;   8.599;   8.558;   8.040;   2.922;   0.505;;;;;;;;;;;;;;;;;;
2004-12-14T17:39:31.789Z;0;9.5700e+00;0;     0.404;   667.296;  27787.725; 0;  27779.711;  27787.725;  28115.363;  27448.066;  B;   8.567; 130.370; 257.437;; 261.841; 209.043;  13.333;   3.378;   3.124;   8.597;   8.557;   8.037;   2.924;   0.505;;;;;;;;;;;;;;;;;;
2004-12-14T17:39:47.789Z;0;9.5650e+00;0;     0.383;   667.296;  27780.434; 0;  27772.418;  27780.434;  28108.070;  27440.773;  B;   8.566; 130.505; 257.570;; 261.975; 209.176;  13.334;   3.379;   3.125;   8.595;   8.555;   8.035;   2.925;   0.505;;;;;;;;;;;;;;;;;;
2004-12-14T17:40:03.789Z;0;9.7900e+00;0;     0.336;   665.504;  28105.273; 0;  28097.393;  28105.273;  28432.115;  27766.611;  B;   8.564; 130.640; 257.703;; 262.108; 209.309;  13.335;   3.380;   3.126;   8.594;   8.553;   8.032;   2.927;   0.505;;;;;;;;;;;;;;;;;;
2004-12-14T17:40:19.789Z;0;9.4710e+00;0;     0.384;   665.504;  27643.510; 0;  27635.498;  27643.510;  27970.254;  27304.748;  B;   8.562; 130.775; 257.836;; 262.241; 209.444;  13.336;   3.381;   3.127;   8.592;   8.551;   8.030;   2.928;   0.505;;;;;;;;;;;;;;;;;;
2004-12-14T17:40:35.789Z;0;9.5570e+00;0;     0.334;   665.504;  27769.629; 0;  27761.652;  27769.629;  28096.398;  27430.895;  B;   8.560; 130.909; 257.969;; 262.373; 209.579;  13.337;   3.382;   3.128;   8.590;   8.549;   8.027;   2.930;   0.505;;;;;;;;;;;;;;;;;;
2004-12-14T17:40:51.789Z;0;9.8800e+00;0;     0.399;   665.504;  28233.678; 0;  28225.834;  28233.678;  28560.547;  27895.043;  B;   8.558; 131.044; 258.102;; 262.506; 209.715;  13.338;   3.383;   3.129;   8.588;   8.547;   8.024;   2.931;   0.505;;;;;;;;;;;;;;;;;;
2004-12-14T17:41:23.789Z;0;8.5430e+00;0;     0.388;   645.008;  26255.625; 0;  26247.701;  26255.625;  26572.186;  25927.178;  B;   8.554; 131.313; 258.367;; 262.770; 209.986;  13.340;   3.385;   3.131;   8.584;   8.543;   8.019;   2.934;   0.505;;;;;;;;;;;;;;;;;;
2004-12-14T17:43:31.788Z;0;8.2270e+00;0;     0.452;   638.792;  25764.551; 0;  25756.631;  25764.551;  26078.008;  25439.215;  B;   8.539; 132.390; 259.430;; 263.825; 211.072;  13.348;   3.393;   3.139;   8.569;   8.528;   7.999;   2.946;   0.505;;;;;;;;;;;;;;;;;;
2004-12-14T17:44:35.787Z;0;8.4370e+00;0;     0.410;   658.420;  26092.410; 0;  26084.102;  26092.410;  26415.389;  25756.969;  B;   8.531; 132.929; 259.962;; 264.350; 211.617;  13.352;   3.398;   3.143;   8.561;   8.520;   7.988;   2.952;   0.506;;;;;;;;;;;;;;;;;;
2004-12-14T17:44:51.787Z;0;9.5730e+00;0;     0.323;   658.420;  27792.283; 0;  27784.482;  27792.283;  28115.643;  27457.223;  B;   8.529; 133.063; 260.095;; 264.481; 211.753;  13.353;   3.399;   3.144;   8.559;   8.518;   7.986;   2.954;   0.506;;;;;;;;;;;;;;;;;;
2004-12-14T17:45:07.787Z;0;9.7050e+00;0;     0.308;   669.984;  27983.998; 0;  27975.977;  27983.998;  28312.975;  27642.990;  B;   8.527; 133.198; 260.227;; 264.612; 211.890;  13.354;   3.400;   3.145;   8.558;   8.516;   7.983;   2.955;   0.506;;;;;;;;;;;;;;;;;;
2004-12-14T17:45:23.787Z;0;9.2860e+00;0;     0.253;   669.984;  27373.527; 0;  27365.326;  27373.527;  27702.369;  27032.385;  B;   8.526; 133.332; 260.360;; 264.743; 212.026;  13.355;   3.401;   3.146;   8.556;   8.515;   7.980;   2.957;   0.506;;;;;;;;;;;;;;;;;;
2004-12-14T17:45:39.787Z;0;1.2420e+01;0;     0.223;   669.984;  31654.262; 0;  31647.170;  31654.262;  31983.936;  31313.951;  B;   8.524; 133.467; 260.493;; 264.874; 212.163;  13.356;   3.402;   3.147;   8.554;   8.513;   7.978;   2.958;   0.506;;;;;;;;;;;;;;;;;;
2004-12-14T17:46:43.787Z;0;8.9360e+00;0;     0.183;   674.828;  26852.527; 0;  26844.047;  26852.527;  27183.580;  26508.754;  B;   8.516; 134.005; 261.024;; 265.397; 212.710;  13.361;   3.406;   3.151;   8.546;   8.505;   7.967;   2.965;   0.506;;;;;;;;;;;;;;;;;;
2004-12-14T17:46:59.787Z;0;9.8520e+00;0;     0.365;   674.828;  28194.902; 0;  28186.826;  28194.902;  28526.260;  27851.432;  B;   8.514; 134.140; 261.157;; 265.528; 212.846;  13.362;   3.407;   3.152;   8.544;   8.503;   7.965;   2.966;   0.506;;;;;;;;;;;;;;;;;;
2004-12-14T17:47:15.786Z;0;8.9630e+00;0;     0.353;   673.008;  26893.602; 0;  26885.180;  26893.602;  27223.789;  26550.781;  B;   8.512; 134.274; 261.290;; 265.658; 212.983;  13.363;   3.408;   3.153;   8.542;   8.501;   7.962;   2.968;   0.506;;;;;;;;;;;;;;;;;;
2004-12-14T17:47:31.786Z;0;9.5940e+00;0;     0.383;   673.008;  27823.119; 0;  27814.979;  27823.119;  28153.518;  27480.510;  B;   8.510; 134.409; 261.422;; 265.788; 213.120;  13.364;   3.409;   3.154;   8.540;   8.499;   7.960;   2.969;   0.506;;;;;;;;;;;;;;;;;;
2004-12-14T17:47:47.786Z;0;9.3630e+00;0;     0.384;   673.008;  27486.428; 0;  27478.188;  27486.428;  27816.752;  27143.744;  B;   8.508; 134.543; 261.555;; 265.919; 213.257;  13.365;   3.410;   3.155;   8.539;   8.497;   7.957;   2.971;   0.506;;;;;;;;;;;;;;;;;;
2004-12-14T17:48:03.786Z;0;8.8180e+00;0;     0.383;   677.992;  26675.451; 0;  26666.834;  26675.451;  27007.984;  26329.992;  B;   8.506; 134.678; 261.688;; 266.049; 213.395;  13.366;   3.412;   3.156;   8.537;   8.496;   7.954;   2.972;   0.506;;;;;;;;;;;;;;;;;;
2004-12-14T17:48:19.786Z;0;1.0030e+01;0;     0.398;   677.992;  28451.512; 0;  28443.432;  28451.512;  28784.449;  28106.457;  B;   8.505; 134.812; 261.820;; 266.179; 213.532;  13.367;   3.413;   3.157;   8.535;   8.494;   7.952;   2.974;   0.506;;;;;;;;;;;;;;;;;;
2004-12-14T17:48:35.786Z;0;9.6950e+00;0;     0.327;   677.992;  27968.732; 0;  27960.514;  27968.732;  28301.564;  27623.572;  B;   8.503; 134.947; 261.953;; 266.309; 213.669;  13.368;   3.414;   3.158;   8.533;   8.492;   7.949;   2.975;   0.506;;;;;;;;;;;;;;;;;;
2004-12-14T17:48:51.786Z;0;9.6640e+00;0;     0.368;   677.992;  27923.924; 0;  27915.691;  27923.924;  28256.746;  27578.754;  B;   8.501; 135.081; 262.086;; 266.439; 213.806;  13.369;   3.415;   3.159;   8.531;   8.490;   7.947;   2.977;   0.506;;;;;;;;;;;;;;;;;;
2004-12-14T17:49:07.786Z;0;9.7620e+00;0;     0.397;   676.088;  28065.822; 0;  28057.678;  28065.822;  28397.758;  27721.670;  B;   8.499; 135.215; 262.219;; 266.569; 213.944;  13.370;   3.416;   3.160;   8.529;   8.488;   7.944;   2.978;   0.506;;;;;;;;;;;;;;;;;;
2004-12-14T17:49:23.786Z;0;9.6980e+00;0;     0.365;   676.088;  27974.027; 0;  27965.855;  27974.027;  28305.943;  27629.855;  B;   8.497; 135.350; 262.351;; 266.699; 214.081;  13.371;   3.417;   3.161;   8.527;   8.486;   7.941;   2.980;   0.506;;;;;;;;;;;;;;;;;;
2004-12-14T17:49:39.786Z;0;8.8230e+00;0;     0.394;   676.088;  26682.340; 0;  26673.773;  26682.340;  27013.959;  26337.871;  B;   8.495; 135.484; 262.484;; 266.829; 214.219;  13.372;   3.418;   3.162;   8.525;   8.484;   7.939;   2.981;   0.506;;;;;;;;;;;;;;;;;;
2004-12-14T17:49:55.785Z;0;9.6350e+00;0;     0.382;   676.088;  27882.840; 0;  27874.643;  27882.840;  28214.736;  27538.648;  B;   8.493; 135.619; 262.617;; 266.958; 214.356;  13.373;   3.419;   3.163;   8.523;   8.482;   7.936;   2.983;   0.507;;;;;;;;;;;;;;;;;;
2004-12-14T17:50:11.785Z;0;8.7220e+00;0;     0.355;   680.316;  26529.895; 0;  26521.170;  26529.895;  26863.510;  26183.193;  B;   8.491; 135.753; 262.749;; 267.090; 214.493;  13.374;   3.420;   3.164;   8.521;   8.480;   7.934;   2.984;   0.507;;;;;;;;;;;;;;;;;;
2004-12-14T17:50:27.785Z;0;8.8180e+00;0;     0.383;   680.316;  26675.451; 0;  26666.775;  26675.451;  27009.102;  26328.785;  B;   8.489; 135.888; 262.882;; 267.222; 214.629;  13.375;   3.421;   3.165;   8.520;   8.478;   7.931;   2.986;   0.507;;;;;;;;;;;;;;;;;;
2004-12-14T17:50:43.785Z;0;8.4130e+00;0;     0.261;   680.316;  26055.816; 0;  26046.934;  26055.816;  26389.312;  25708.996;  B;   8.487; 136.022; 263.015;; 267.355; 214.765;  13.376;   3.422;   3.166;   8.518;   8.476;   7.928;   2.987;   0.507;;;;;;;;;;;;;;;;;;
2004-12-14T17:51:15.785Z;0;9.5540e+00;0;     0.388;   688.940;  27765.398; 0;  27756.850;  27765.398;  28103.457;  27414.518;  B;   8.484; 136.291; 263.280;; 267.620; 215.038;  13.378;   3.424;   3.168;   8.514;   8.473;   7.923;   2.990;   0.507;;;;;;;;;;;;;;;;;;
2004-12-14T17:51:31.785Z;0;9.5990e+00;0;     0.398;   688.940;  27831.098; 0;  27822.568;  27831.098;  28169.172;  27480.232;  B;   8.482; 136.425; 263.413;; 267.752; 215.174;  13.379;   3.425;   3.169;   8.512;   8.471;   7.920;   2.992;   0.507;;;;;;;;;;;;;;;;;;
2004-12-14T17:51:47.785Z;0;9.7580e+00;0;     0.386;   688.940;  28059.488; 0;  28051.029;  28059.488;  28397.615;  27708.674;  B;   8.480; 136.560; 263.545;; 267.885; 215.310;  13.380;   3.426;   3.170;   8.510;   8.469;   7.918;   2.993;   0.507;;;;;;;;;;;;;;;;;;
2004-12-14T17:52:03.785Z;0;8.8240e+00;0;     0.337;   682.248;  26684.365; 0;  26675.643;  26684.365;  27018.947;  26336.699;  B;   8.478; 136.694; 263.678;; 268.018; 215.447;  13.381;   3.428;   3.171;   8.508;   8.467;   7.915;   2.995;   0.507;;;;;;;;;;;;;;;;;;
2004-12-14T17:52:19.784Z;0;9.4870e+00;0;     0.384;   682.248;  27667.145; 0;  27658.730;  27667.145;  28001.959;  27319.711;  B;   8.476; 136.828; 263.810;; 268.151; 215.583;  13.382;   3.429;   3.172;   8.506;   8.465;   7.913;   2.996;   0.507;;;;;;;;;;;;;;;;;;
2004-12-14T17:52:35.784Z;0;8.5720e+00;0;     0.323;   682.248;  26300.543; 0;  26291.693;  26300.543;  26635.029;  25952.781;  B;   8.474; 136.963; 263.943;; 268.283; 215.719;  13.384;   3.430;   3.173;   8.504;   8.463;   7.910;   2.998;   0.507;;;;;;;;;;;;;;;;;;
2004-12-14T17:52:51.784Z;0;8.6210e+00;0;     0.369;   682.248;  26375.812; 0;  26366.988;  26375.812;  26710.318;  26028.070;  B;   8.472; 137.097; 264.076;; 268.416; 215.855;  13.385;   3.431;   3.174;   8.503;   8.461;   7.907;   2.999;   0.507;;;;;;;;;;;;;;;;;;
2004-12-14T17:53:07.784Z;0;8.4770e+00;0;     0.378;   670.992;  26154.170; 0;  26145.561;  26154.170;  26483.209;  25812.217;  B;   8.470; 137.231; 264.208;; 268.549; 215.991;  13.386;   3.432;   3.175;   8.501;   8.459;   7.905;   3.001;   0.507;;;;;;;;;;;;;;;;;;
2004-12-14T17:53:23.784Z;0;8.7130e+00;0;     0.396;   670.992;  26515.754; 0;  26507.262;  26515.754;  26844.881;  26173.891;  B;   8.468; 137.366; 264.341;; 268.682; 216.128;  13.387;   3.433;   3.176;   8.499;   8.457;   7.902;   3.002;   0.507;;;;;;;;;;;;;;;;;;
2004-12-14T17:53:39.784Z;0;8.5370e+00;0;     0.419;   670.992;  26246.145; 0;  26237.566;  26246.145;  26575.207;  25904.215;  B;   8.466; 137.500; 264.473;; 268.816; 216.264;  13.388;   3.434;   3.177;   8.497;   8.456;   7.900;   3.004;   0.507;;;;;;;;;;;;;;;;;;
2004-12-14T17:53:55.784Z;0;8.4140e+00;0;     0.371;   670.992;  26056.449; 0;  26047.809;  26056.449;  26385.465;  25714.473;  B;   8.464; 137.635; 264.606;; 268.949; 216.400;  13.389;   3.435;   3.178;   8.495;   8.454;   7.897;   3.005;   0.507;;;;;;;;;;;;;;;;;;
2004-12-14T17:55:15.783Z;0;8.6260e+00;0;     0.418;   664.300;  26382.654; 0;  26374.289;  26382.654;  26708.531;  26044.230;  B;   8.455; 138.306; 265.269;; 269.616; 217.081;  13.394;   3.440;   3.183;   8.486;   8.444;   7.884;   3.013;   0.507;;;;;;;;;;;;;;;;;;
2004-12-14T17:55:31.783Z;0;8.5530e+00;0;     0.406;   664.300;  26270.719; 0;  26262.318;  26270.719;  26596.568;  25932.270;  B;   8.453; 138.440; 265.401;; 269.749; 217.217;  13.395;   3.441;   3.184;   8.484;   8.442;   7.881;   3.014;   0.507;;;;;;;;;;;;;;;;;;
2004-12-14T17:55:47.783Z;0;8.6410e+00;0;     0.384;   664.300;  26405.594; 0;  26397.236;  26405.594;  26731.477;  26067.176;  B;   8.451; 138.575; 265.534;; 269.883; 217.353;  13.396;   3.443;   3.185;   8.482;   8.440;   7.879;   3.016;   0.507;;;;;;;;;;;;;;;;;;
2004-12-14T17:56:03.783Z;0;8.4140e+00;0;     0.388;   684.992;  26057.855; 0;  26048.852;  26057.855;  26393.598;  25708.605;  B;   8.449; 138.709; 265.666;; 270.017; 217.489;  13.397;   3.444;   3.186;   8.480;   8.438;   7.876;   3.017;   0.508;;;;;;;;;;;;;;;;;;
2004-12-14T17:57:07.783Z;0;7.1600e+00;0;     0.414;   683.788;  24039.338; 0;  24029.611;  24039.338;  24373.938;  23690.148;  B;   8.442; 139.246; 266.196;; 270.552; 218.034;  13.401;   3.448;   3.190;   8.472;   8.431;   7.866;   3.023;   0.508;;;;;;;;;;;;;;;;;;
2004-12-14T17:58:27.782Z;0;8.3450e+00;0;     0.397;   699.076;  25951.055; 0;  25941.637;  25951.055;  26293.529;  25594.453;  B;   8.432; 139.917; 266.859;; 271.223; 218.714;  13.407;   3.453;   3.195;   8.463;   8.421;   7.852;   3.031;   0.508;;;;;;;;;;;;;;;;;;
2004-12-14T17:58:59.782Z;0;8.2670e+00;0;     0.287;   699.076;  25828.688; 0;  25819.225;  25828.688;  26171.129;  25472.053;  B;   8.428; 140.185; 267.123;; 271.492; 218.986;  13.409;   3.455;   3.197;   8.459;   8.417;   7.847;   3.034;   0.508;;;;;;;;;;;;;;;;;;
2004-12-14T17:59:15.782Z;0;8.8140e+00;0;     0.372;   699.748;  26669.275; 0;  26660.094;  26669.275;  27012.264;  26312.516;  B;   8.426; 140.320; 267.256;; 271.626; 219.122;  13.410;   3.457;   3.198;   8.457;   8.415;   7.844;   3.035;   0.508;;;;;;;;;;;;;;;;;;
2004-12-14T17:59:31.782Z;0;9.0060e+00;0;     0.371;   699.748;  26958.633; 0;  26949.551;  26958.633;  27301.695;  26601.947;  B;   8.424; 140.454; 267.388;; 271.761; 219.258;  13.411;   3.458;   3.199;   8.455;   8.414;   7.842;   3.037;   0.508;;;;;;;;;;;;;;;;;;
2004-12-14T17:59:47.782Z;0;9.6690e+00;0;     0.398;   699.748;  27931.760; 0;  27922.994;  27931.760;  28275.059;  27575.311;  B;   8.423; 140.588; 267.521;; 271.895; 219.394;  13.412;   3.459;   3.200;   8.453;   8.412;   7.839;   3.038;   0.508;;;;;;;;;;;;;;;;;;
2004-12-14T18:00:03.781Z;0;9.5160e+00;0;     0.437;   706.804;  27709.924; 0;  27700.908;  27709.924;  28056.564;  27349.760;  B;   8.421; 140.722; 267.653;; 272.029; 219.530;  13.413;   3.460;   3.201;   8.451;   8.410;   7.837;   3.040;   0.508;;;;;;;;;;;;;;;;;;
2004-12-14T18:00:19.781Z;0;8.2470e+00;0;     0.263;   706.804;  25797.447; 0;  25787.764;  25797.447;  26143.586;  25436.783;  B;   8.419; 140.856; 267.786;; 272.161; 219.666;  13.414;   3.461;   3.202;   8.450;   8.408;   7.834;   3.041;   0.508;;;;;;;;;;;;;;;;;;
2004-12-14T18:00:35.781Z;0;1.0520e+01;0;     0.227;   706.804;  29130.916; 0;  29122.340;  29130.916;  29477.887;  28771.082;  B;   8.417; 140.990; 267.918;; 272.293; 219.802;  13.415;   3.462;   3.203;   8.448;   8.406;   7.831;   3.042;   0.508;;;;;;;;;;;;;;;;;;
2004-12-14T18:00:51.781Z;0;7.9740e+00;0;     0.106;   706.804;  25367.572; 0;  25357.725;  25367.572;  25713.588;  25006.785;  B;   8.415; 141.125; 268.050;; 272.425; 219.938;  13.416;   3.463;   3.204;   8.446;   8.404;   7.829;   3.044;   0.508;;;;;;;;;;;;;;;;;;
2004-12-14T18:01:23.781Z;0;8.4360e+00;0;     0.410;   701.708;  26092.412; 0;  26082.975;  26092.412;  26436.188;  25734.480;  B;   8.411; 141.393; 268.315;; 272.688; 220.210;  13.419;   3.465;   3.206;   8.442;   8.400;   7.823;   3.047;   0.508;;;;;;;;;;;;;;;;;;
2004-12-14T18:07:47.778Z;0;9.7200e+00;0;     0.265;   715.540;  28005.576; 0;  27996.434;  28005.576;  28356.490;  27640.949;  B;   8.365; 144.610; 271.490;; 275.824; 223.471;  13.444;   3.491;   3.231;   8.397;   8.355;   7.760;   3.083;   0.509;;;;;;;;;;;;;;;;;;
2004-12-14T18:08:19.778Z;0;7.3720e+00;0;     0.446;   722.120;  24392.324; 0;  24381.633;  24392.324;  24745.365;  24023.246;  B;   8.362; 144.878; 271.754;; 276.083; 223.743;  13.446;   3.493;   3.233;   8.393;   8.351;   7.755;   3.086;   0.509;;;;;;;;;;;;;;;;;;
2004-12-14T18:08:35.778Z;0;6.9240e+00;0;     0.508;   722.120;  23641.270; 0;  23630.238;  23641.270;  23994.057;  23271.938;  B;   8.360; 145.012; 271.886;; 276.213; 223.879;  13.448;   3.494;   3.234;   8.391;   8.349;   7.752;   3.087;   0.510;;;;;;;;;;;;;;;;;;
2004-12-14T18:10:43.777Z;0;8.4470e+00;0;     0.471;   731.416;  26109.141; 0;  26098.895;  26109.141;  26467.164;  25735.748;  B;   8.344; 146.083; 272.943;; 277.254; 224.961;  13.456;   3.503;   3.242;   8.376;   8.334;   7.731;   3.099;   0.510;;;;;;;;;;;;;;;;;;
2004-12-14T18:12:03.777Z;0;5.0530e+00;0;     0.474;   721.084;  20199.309; 0;  20186.434;  20199.309;  20550.195;  19829.111;  B;   8.335; 146.752; 273.604;; 277.914; 225.631;  13.462;   3.508;   3.247;   8.366;   8.324;   7.718;   3.107;   0.510;;;;;;;;;;;;;;;;;;
2004-12-14T18:14:43.776Z;0;9.0050e+00;0;     0.269;   728.112;  26957.654; 0;  26947.820;  26957.654;  27314.334;  26586.223;  B;   8.316; 148.090; 274.924;; 279.240; 226.965;  13.473;   3.519;   3.258;   8.347;   8.305;   7.691;   3.121;   0.510;;;;;;;;;;;;;;;;;;
2004-12-14T18:14:59.776Z;0;8.4050e+00;0;     0.410;   728.112;  26044.947; 0;  26034.768;  26044.947;  26401.369;  25673.258;  B;   8.314; 148.224; 275.056;; 279.373; 227.098;  13.474;   3.520;   3.259;   8.345;   8.303;   7.688;   3.123;   0.511;;;;;;;;;;;;;;;;;;
2004-12-14T18:16:19.775Z;0;7.4770e+00;0;     0.462;   728.644;  24565.797; 0;  24554.988;  24565.797;  24922.014;  24193.369;  B;   8.304; 148.892; 275.716;; 280.038; 227.761;  13.479;   3.526;   3.264;   8.336;   8.294;   7.675;   3.130;   0.511;;;;;;;;;;;;;;;;;;